Voltar ao catálogo

FENGYUN 1C DEB

AtivoSSO
NORAD 31321·DEBRIS·🇨🇳 China

Lançado May 10, 1999 de Taiyuan Satellite Launch Center

Loading…

Próximas Passagens (próximas 24 horas)

TLE

EnvelhecendoSource: Space-Track

Época: Sep 10, 2026, 10:29 UTC

1 31321U 99025BPZ 26253.43739877  .00000116  00000-0  83001-4 0  9995
2 31321  98.7115 330.6760 0030774 123.9784 236.4320 14.13955758612235

Acompanhe FENGYUN 1C DEB em tempo real com AllMySat

Download on the App Store